STARLINK-11394, 62218

Orbit data source: Space-Track

STARLINK-11394, 62218 is a payload satellite owned by SpaceX/Seattle (US) in LEO that was launched on Thu, 05 Dec 2024 UTC via an FALCON 9 launch vehicle from the Air Force Western Test Range (AFWTR). Payloads include a variety of satellites, spacecraft, and rockets equipped with specific instruments for various scientific and technological missions. These include communications satellites like Starlink; space stations such as the ISS; scientific satellites like the Hubble; Earth observation satellites from companies like Planet Labs, Umbra, and HawkEye 360; GPS; miniature CubeSats for education and research; and military/defense satellites.

Loading next visibility...
STARLINK-11394 details
Identifier
62218, 2024-231A
Orbit
LEO
Last TLE update7 hours ago
Origin
Flag of USSpaceX/Seattle (US)
ManufacturerSpaceX/Seattle
MissionOperational spacecraft
Bus & MotorSTARLINK V2M, Unknown motor
Mass730 kg wet, ~700 kg dry
Launch date (UTC)
2024-12-05 (2 months ago)
Launch vehicle
FALCON 9
Launch site
Air Force Western Test Range (AFWTR)
Object type
Payload
Rocket body
Debris
Shape & HBRUnknown
Radar Cross SectionLarge (>1 m²)

Expand to show TLE details & history

TLE from 7 hours ago
0 STARLINK-11394
1 62218U 24231A   25025.58334491  .00041097  00000-0  34268-3 0  9999
2 62218  53.1593 313.1047 0001139  96.4444 260.5163 15.69689537  5895
Epoch: 2025-01-25T14:00Z
Definitive object data (Epoch: 2025-01-25T14:00:01Z)
Latitude-2.53936°
Longitude-23.92295°
Altitude361.191 km
Speed7.694 km/s
True Right ascension20h 44m 50s
True Declination-2° 31' 24"
Sunlit
Object was in daylight at TLE epoch
Visualization TLE readout
Latitude51.65708°
Longitude86.25258°
Altitude365.139 km
Speed7.697 km/s
Apparent Right ascension07h 17m 03s
Apparent Declination10° 15' 56"
Sunlit
Object is in full shadow
Visualization observer readout
Local Sidereal Time21:54:38
Azimuth44.994° NE
Elevation-27.962°
Doppler factor1
Orbital elements
Apogee altitude360.814 km
Perigee altitude359.279 km
Semi-major axis6,738.183 km
Eccentricity0.0001139
Inclination53.1593°
RAAN313.1047°
Arg. of periapsis96.4444°
True anomaly260.50343°
Mean anomaly260.5163°
Eccentric anomaly260.50986°
Mean motion3.924 °/min
BSTAR0.00034268
Orbital period91.74 mins
Loading maneuver chart data...
Loading historical data...
Loading historical data...
Loading historical data...
Loading historical data...
Loading historical data...
Loading historical data...
Loading historical data...

STARLINK-11394 Visibility forecast

Observer location: undefined°, undefined

Span
Click to sort rows by Start time (UTC) header in descending order
Start Az.
Max El. time (UTC)
Max El. Az.
Max El.
End time (UTC)
End Az.
4 mins2025-01-25 21:50:31.128Z221.787° SW2025-01-25 21:52:31.128Z137.813° SSE43.957°2025-01-25 21:54:31.128Z54.974° ENE
4 mins2025-01-26 04:15:31.128Z330.708° NNW2025-01-26 04:17:31.128Z56.949° ENE34.131°2025-01-26 04:19:31.128Z107.482° ESE
|